星链-32337 (STARLINK-32337)

导读 | 豆包AI

STARLINK-32337是美国太空探索技术公司星链互联网星座中的一颗卫星,于2024年10月23日发射入轨,属于Starlink项目低轨卫星组网批次卫星,承担全球低延迟宽带互联网覆盖服务的组网任务。作为星链星座扩容部署的组成部分,该卫星运行在近地轨道,进一步扩充了星座的服务覆盖范围与容量。

基本信息
目录编号:
61643
目录名称:
STARLINK-32337
国际标识:
2024-191Y
轨道中心:
EARTH
卫星名称:
星链-32337
卫星全名:
星链-32337 (STARLINK-32337)
卫星状态:
在轨 (已飞行508 天)
发射日期:
2024-10-23 UTC
国别 :
美国 (US)
星等 :
--
轨道信息
数据来源 国际轨道数据
星历时间: 2026-03-15T03:57:24+0800
17小时前
查看轨道信息
半长轴: 6861.177km
偏心率: 0.0000699
轨道倾角: 43.002°
近地点辐角 300.846°
升交点赤经 125.384°
平近点角 59.233°
近地点: 482.56km
远地点: 483.52km
周期: 94.267分钟
每日圈数: 15.275831
详细信息
固有亮度:
5
最大亮度:
2.5
卫星平台:
Starlink V1.0
覆盖范围:
全球
运营商:
太空探索技术公司
运营商所在国:
美国
制造商(研发单位):
太空探索技术公司
制造商所在国:
美国
使用方式:
暂无
卫星简介
Starlink 计划是 SpaceX 推出的全球卫星互联网项目,通过发射低轨道卫星,为全球尤其是偏远地区提供高速、低延迟的互联网服务。自 2019 年起,Starlink 已部署数千颗卫星,旨在缩小全球数字鸿沟,推动互联网普及。该项目还为军事、航空等行业提供通信支持,带来广泛经济效益。
2D轨道图
3D轨道图
轨道高度分析图
轨道倾角分析图
轨道综合分析图
查看轨道综合分析图